N8YZF Weather Reports


Display with metric or nautical units.
time (UTC)temp
F
wind
direction
speed
MPH
gust
MPH
rain 1hr
in
rain 24hr
in
rain mn
in
humidity
%
barometer
mb
20260502220059 53 212 3.0 6.0 0.00 0.00 0.00 32 1012.6
20260502215556 53 339 3.0 9.0 0.00 0.00 0.00 30 1012.6
20260502215052 53 242 3.0 9.0 0.00 0.00 0.00 32 1012.6
20260502214553 53 229 2.0 5.0 0.00 0.00 0.00 33 1012.7
20260502214040 53 321 2.0 5.0 0.00 0.00 0.00 30 1012.8
20260502213543 53 355 2.0 4.0 0.00 0.00 0.00 30 1012.8
20260502213011 53 315 2.0 9.0 0.00 0.00 0.00 30 1012.7
20260502212512 52 348 3.0 9.0 0.00 0.00 0.00 30 1012.5
20260502212011 52 325 4.0 9.0 0.00 0.00 0.00 30 1012.5
20260502211509 52 248 4.0 9.0 0.00 0.00 0.00 29 1012.5
20260502211009 52 268 3.0 13.0 0.00 0.00 0.00 31 1012.5
20260502210509 52 338 5.0 13.0 0.00 0.00 0.00 30 1012.5
20260502210008 52 257 4.0 11.0 0.00 0.00 0.00 31 1012.5
20260502205508 53 275 2.0 7.0 0.00 0.00 0.00 32 1012.6
20260502205008 53 233 2.0 4.0 0.00 0.00 0.00 30 1012.6
20260502204820 52 36 3.0 11.0 0.00 0.00 0.00 33 1012.6
20260502204301 52 42 4.0 11.0 0.00 0.00 0.00 32 1012.6
20260502203817 53 261 3.0 12.0 0.00 0.00 0.00 30 1012.6
20260502203004 53 290 3.0 12.0 0.00 0.00 0.00 33 1012.8
20260502202504 52 278 4.0 12.0 0.00 0.00 0.00 32 1012.7
20260502201950 52 255 4.0 11.0 0.00 0.00 0.00 31 1012.7
20260502201759 52 238 4.0 11.0 0.00 0.00 0.00 30 1012.9
20260502200951 52 301 4.0 11.0 0.00 0.00 0.00 33 1012.9
20260502200503 52 215 4.0 11.0 0.00 0.00 0.00 34 1012.9
20260502195950 52 264 3.0 8.0 0.00 0.00 0.00 33 1013.2
20260502195449 52 258 2.0 8.0 0.00 0.00 0.00 33 1013.3
20260502194949 52 223 1.0 5.0 0.00 0.00 0.00 36 1013.2
20260502194449 51 329 1.0 5.0 0.00 0.00 0.00 39 1013.5
20260502193947 51 304 1.0 5.0 0.00 0.00 0.00 35 1013.5
20260502193445 51 355 1.0 5.0 0.00 0.00 0.00 35 1013.5
20260502192936 51 291 2.0 8.0 0.00 0.00 0.00 35 1013.8
20260502192357 51 338 3.0 8.0 0.00 0.00 0.00 36 1013.8
20260502191858 51 344 2.0 5.0 0.00 0.00 0.00 34 1013.8
20260502191359 51 355 2.0 6.0 0.00 0.00 0.00 38 1013.8
20260502190855 50 281 2.0 6.0 0.00 0.00 0.00 39 1013.8
20260502190354 50 351 3.0 11.0 0.00 0.00 0.00 38 1013.8
20260502185853 51 187 3.0 11.0 0.00 0.00 0.00 33 1014.0
20260502185653 51 316 2.0 6.0 0.00 0.00 0.00 42 1014.0
20260502185112 51 342 2.0 13.0 0.00 0.00 0.00 37 1014.0
20260502184308 52 285 2.0 13.0 0.00 0.00 0.00 37 1014.1
20260502184112 52 336 3.0 9.0 0.00 0.00 0.00 35 1014.1
20260502183308 51 142 3.0 9.0 0.00 0.00 0.00 36 1014.1
20260502183109 51 203 3.0 9.0 0.00 0.00 0.00 36 1014.4
20260502182305 51 275 2.0 11.0 0.00 0.00 0.00 35 1014.4
20260502181805 51 309 2.0 11.0 0.00 0.00 0.00 38 1014.3
20260502181309 50 298 2.0 6.0 0.00 0.00 0.00 36 1014.3
20260502180805 50 305 3.0 8.0 0.00 0.00 0.00 36 1014.3
20260502180303 50 268 4.0 9.0 0.00 0.00 0.00 37 1014.3
20260502170251 49 283 3.0 7.0 0.00 0.00 0.00 38 1014.7
20260502164242 48 230 3.0 7.0 0.00 0.00 0.00 42 1015.0
20260502163743 48 291 3.0 7.0 0.00 0.00 0.00 40 1015.0
20260502163242 48 230 3.0 6.0 0.00 0.00 0.00 40 1015.0
20260502163044 47 283 3.0 7.0 0.00 0.00 0.00 38 1015.2
20260502162515 47 132 2.0 7.0 0.00 0.00 0.00 37 1015.1
20260502161708 48 304 2.0 5.0 0.00 0.00 0.00 41 1015.2
20260502161209 48 284 3.0 5.0 0.00 0.00 0.00 40 1015.3
20260502160708 48 306 2.0 5.0 0.00 0.00 0.00 38 1015.3
20260502160206 47 340 2.0 6.0 0.00 0.00 0.00 41 1015.3
20260502152117 47 327 1.0 4.0 0.00 0.00 0.00 43 1015.3
20260502151617 47 31 1.0 6.0 0.00 0.00 0.00 43 1015.3
20260502151121 47 20 2.0 6.0 0.00 0.00 0.00 47 1015.3
20260502150610 46 348 2.0 6.0 0.00 0.00 0.00 43 1015.3
20260502150420 46 0 2.0 5.0 0.00 0.00 0.00 44 1015.3
20260502130453 39 333 1.0 4.0 0.00 0.00 0.00 70 1015.2
20260502123440 36 288 0.0 1.0 0.00 0.00 0.00 86 1015.1
20260502122906 36 284 0.0 0.0 0.00 0.00 0.00 87 1015.1
20260502122351 36 286 0.0 0.0 0.00 0.00 0.00 89 1015.1
20260502121905 35 286 0.0 0.0 0.00 0.00 0.00 91 1015.0
20260502121300 34 286 0.0 0.0 0.00 0.00 0.00 91 1014.9
20260502120758 33 286 0.0 0.0 0.00 0.00 0.00 92 1014.9
20260502120257 32 286 0.0 0.0 0.00 0.00 0.00 92 1014.8
20260502115806 32 286 0.0 0.0 0.00 0.00 0.00 94 1014.8
20260502115233 31 286 0.0 0.0 0.00 0.00 0.00 95 1014.7
20260502114702 30 286 0.0 0.0 0.00 0.00 0.00 95 1014.6
20260502114205 29 286 0.0 0.0 0.00 0.00 0.00 94 1014.5
20260502113948 28 286 0.0 0.0 0.00 0.00 0.00 94 1014.4
20260502113158 27 286 0.0 0.0 0.00 0.00 0.00 93 1014.3
20260502112653 27 286 0.0 0.0 0.00 0.00 0.00 93 1014.3
20260502112431 27 286 0.0 0.0 0.00 0.00 0.00 93 1014.3
20260502111849 27 286 0.0 0.0 0.00 0.00 0.00 93 1014.3
20260502111058 27 286 0.0 0.0 0.00 0.00 0.00 93 1014.2
20260502110830 27 286 0.0 0.0 0.00 0.00 0.00 93 1014.2
20260502110353 27 286 0.0 0.0 0.00 0.00 0.00 93 1014.2
20260502105542 26 286 0.0 0.0 0.00 0.00 0.00 93 1014.3
20260502105248 26 286 0.0 0.0 0.00 0.00 0.00 93 1014.3
20260502104450 26 286 0.0 0.0 0.00 0.00 0.00 93 1014.3
20260502104237 26 286 0.0 0.0 0.00 0.00 0.00 93 1014.3
20260502103443 26 286 0.0 0.0 0.00 0.00 0.00 93 1014.3
20260502102939 26 286 0.0 0.0 0.00 0.00 0.00 93 1014.2
20260502102402 26 286 0.0 0.0 0.00 0.00 0.00 93 1014.1
20260502101903 26 286 0.0 0.0 0.00 0.00 0.00 93 1014.1
20260502101357 25 286 0.0 0.0 0.00 0.00 0.00 93 1014.0
20260502100750 25 286 0.0 0.0 0.00 0.00 0.00 93 1014.0
20260502100245 25 286 0.0 0.0 0.00 0.00 0.00 93 1014.0
20260502090958 25 286 0.0 0.0 0.00 0.00 0.00 92 1013.7
20260502090454 25 286 0.0 0.0 0.00 0.00 0.00 91 1013.7
20260502071032 28 286 0.0 0.0 0.00 0.00 0.00 89 1013.9
20260502070521 28 286 0.0 0.0 0.00 0.00 0.00 88 1013.9
20260502070002 28 286 0.0 0.0 0.00 0.00 0.00 88 1013.9
20260502065459 28 286 0.0 0.0 0.00 0.00 0.00 88 1013.9
20260502064958 28 286 0.0 0.0 0.00 0.00 0.00 87 1013.9
20260502064453 28 286 0.0 0.0 0.00 0.00 0.00 87 1013.9
20260502063946 29 286 0.0 0.0 0.00 0.00 0.00 87 1014.0
20260502063728 29 286 0.0 0.0 0.00 0.00 0.00 86 1014.0
20260502062911 29 286 0.0 0.0 0.00 0.00 0.00 86 1014.1
20260502062347 29 286 0.0 0.0 0.00 0.00 0.00 85 1014.1
20260502062044 29 286 0.0 0.0 0.00 0.00 0.00 85 1014.1
20260502061832 30 286 0.0 0.0 0.00 0.00 0.00 84 1014.1
20260502060752 30 286 0.0 0.0 0.00 0.00 0.00 84 1014.1
20260502060248 30 286 0.0 0.0 0.00 0.00 0.00 83 1014.1
20260502055720 31 286 0.0 0.0 0.00 0.00 0.00 83 1014.1
20260502055159 31 286 0.0 0.0 0.00 0.00 0.00 82 1014.1
20260502054654 31 286 0.0 0.0 0.00 0.00 0.00 82 1014.2
20260502054141 32 286 0.0 0.0 0.00 0.00 0.00 81 1014.2
20260502053553 32 286 0.0 0.0 0.00 0.00 0.00 80 1014.2
20260502053336 33 286 0.0 0.0 0.00 0.00 0.00 80 1014.3
20260502052545 33 286 0.0 0.0 0.00 0.00 0.00 80 1014.3
20260502052042 33 286 0.0 0.0 0.00 0.00 0.00 80 1014.3
20260502051506 33 286 0.0 0.0 0.00 0.00 0.00 79 1014.4
20260502050957 33 286 0.0 0.0 0.00 0.00 0.00 79 1014.4
20260502050451 33 286 0.0 0.0 0.00 0.00 0.00 79 1014.4
20260502050026 33 286 0.0 0.0 0.00 0.00 0.00 79 1014.2
20260502045438 33 286 0.0 0.0 0.00 0.00 0.00 79 1014.2
20260502044900 33 286 0.0 0.0 0.00 0.00 0.00 78 1014.2
20260502044354 33 286 0.0 0.0 0.00 0.00 0.00 77 1014.2
20260502043853 34 286 0.0 0.0 0.00 0.00 0.00 77 1014.3
20260502043257 34 286 0.0 0.0 0.00 0.00 0.00 77 1014.3
20260502042747 34 286 0.0 0.0 0.00 0.00 0.00 77 1014.3
20260502042243 34 286 0.0 0.0 0.00 0.00 0.00 77 1014.3
20260502041655 34 286 0.0 0.0 0.00 0.00 0.00 77 1014.3
20260502041144 34 286 0.0 0.0 0.00 0.00 0.00 77 1014.2
20260502040644 34 286 0.0 0.0 0.00 0.00 0.00 76 1014.2
20260502040359 34 286 0.0 0.0 0.00 0.00 0.00 76 1014.2
20260502035546 34 286 0.0 0.0 0.00 0.00 0.00 76 1014.2
20260502034959 34 286 0.0 0.0 0.00 0.00 0.00 76 1014.2
20260502034450 34 286 0.0 0.0 0.00 0.00 0.00 75 1014.1
20260502034140 34 286 0.0 0.0 0.00 0.00 0.00 75 1014.1
20260502033353 34 286 0.0 0.0 0.00 0.00 0.00 74 1014.1
20260502033047 34 286 0.0 0.0 0.00 0.00 0.00 73 1014.1
20260502031808 35 286 0.0 0.0 0.00 0.00 0.00 72 1014.1
20260502031549 35 286 0.0 0.0 0.00 0.00 0.00 72 1014.1
20260502030755 35 286 0.0 0.0 0.00 0.00 0.00 71 1014.1
20260502030234 35 286 0.0 0.0 0.00 0.00 0.00 71 1014.1
20260502025659 35 286 0.0 0.0 0.00 0.00 0.00 70 1014.0
20260502025114 36 286 0.0 0.0 0.00 0.00 0.00 69 1014.0
20260502024607 36 286 0.0 0.0 0.00 0.00 0.00 69 1014.0
20260502024047 36 286 0.0 0.0 0.00 0.00 0.00 68 1014.1
20260502023815 36 286 0.0 0.0 0.00 0.00 0.00 69 1014.1
20260502023228 37 286 0.0 0.0 0.00 0.00 0.00 68 1014.1
20260502022448 37 286 0.0 0.0 0.00 0.00 0.00 68 1014.1
20260502021934 37 286 0.0 0.0 0.00 0.00 0.00 68 1014.1
20260502021356 37 286 0.0 0.0 0.00 0.00 0.00 67 1014.0
20260502020907 37 286 0.0 1.0 0.00 0.00 0.00 67 1014.0
20260502020320 37 313 0.0 2.0 0.00 0.00 0.00 67 1014.0
20260502015527 37 261 0.0 0.0 0.00 0.00 0.00 67 1013.9
20260502014746 37 261 0.0 1.0 0.00 0.00 0.00 67 1013.9
20260502014518 37 261 0.0 1.0 0.00 0.00 0.00 68 1013.9
20260502013712 37 278 0.0 1.0 0.00 0.00 0.00 68 1013.9
20260502013157 37 278 0.0 1.0 0.00 0.00 0.00 68 1013.9
20260502012657 37 273 0.0 0.0 0.00 0.00 0.00 68 1013.9
20260502012141 38 273 0.0 1.0 0.00 0.00 0.00 68 1013.9
20260502011929 38 273 0.0 1.0 0.00 0.00 0.00 68 1013.9
20260502011107 38 273 0.0 0.0 0.00 0.00 0.00 68 1013.7
20260502010601 38 273 0.0 0.0 0.00 0.00 0.00 67 1013.7
20260502010115 38 273 0.0 0.0 0.00 0.00 0.00 67 1013.7
20260502005918 38 273 0.0 3.0 0.00 0.00 0.00 66 1013.4
20260502005914 38 273 0.0 0.0 0.00 0.00 0.00 67 1013.4
20260502004539 38 273 0.0 3.0 0.00 0.00 0.00 66 1013.4
20260502004040 38 261 0.0 2.0 0.00 0.00 0.00 67 1013.7
20260502003443 38 261 0.0 2.0 0.00 0.00 0.00 66 1013.7
20260502002901 39 254 1.0 3.0 0.00 0.00 0.00 66 1013.5
20260502002355 39 64 1.0 5.0 0.00 0.00 0.00 65 1013.5
20260502001853 39 290 1.0 5.0 0.00 0.00 0.00 64 1013.5
20260502001350 39 27 0.0 2.0 0.00 0.00 0.00 63 1013.3
20260502001140 39 34 0.0 1.0 0.00 0.00 0.00 61 1013.3
20260502000343 39 34 0.0 1.0 0.00 0.00 0.00 60 1013.3
20260501235840 39 34 0.0 2.0 0.00 0.00 0.00 59 1013.2
20260501235340 39 34 0.0 2.0 0.00 0.00 0.00 58 1013.2
20260501234820 40 35 0.0 2.0 0.00 0.00 0.00 58 1013.2
20260501234313 40 36 0.0 2.0 0.00 0.00 0.00 57 1013.1
20260501233757 40 36 0.0 2.0 0.00 0.00 0.00 59 1013.2
20260501233249 40 35 1.0 2.0 0.00 0.00 0.00 55 1013.2
20260501232745 40 35 0.0 2.0 0.00 0.00 0.00 57 1013.1
20260501232245 40 347 0.0 2.0 0.00 0.00 0.00 57 1013.1
20260501232031 40 348 0.0 2.0 0.00 0.00 0.00 58 1013.1
20260501231305 40 16 1.0 3.0 0.00 0.00 0.00 59 1013.0
20260501231253 40 15 0.0 3.0 0.00 0.00 0.00 57 1013.0
20260501230206 40 0 1.0 5.0 0.00 0.00 0.00 59 1013.0
20260501225646 40 318 1.0 5.0 0.00 0.00 0.00 58 1013.0
20260501225254 41 0 1.0 5.0 0.00 0.00 0.00 57 1013.0
20260501225229 41 16 1.0 5.0 0.00 0.00 0.00 59 1013.0
20260501224143 41 270 1.0 4.0 0.00 0.00 0.00 55 1013.0
20260501223605 41 351 1.0 4.0 0.00 0.00 0.00 55 1013.0
20260501223058 41 320 0.0 2.0 0.00 0.00 0.00 55 1013.0
20260501222559 41 320 1.0 2.0 0.00 0.00 0.00 54 1012.9
20260501222047 41 242 1.0 2.0 0.00 0.00 0.00 54 1012.9
20260501221543 41 333 1.0 2.0 0.00 0.00 0.00 53 1012.9
20260501221039 41 315 1.0 2.0 0.00 0.00 0.00 53 1012.9
20260501220519 41 316 1.0 5.0 0.00 0.00 0.00 52 1012.9